When you browse on this site, cookies collect data to enhance your experience and personalize the content and advertising you see.
Visit our Privacy Policy to learn more. By continuing to use the site, you agree to this use of cookies and data.
  • In Schweiz
  • Länderverzeichnis
  • Für 7 Tage
  • Wassertemperatur
  • Wetterkarte
  • Widgets
  • user-avatar
    Anmelden

    Stündliche Wetter Pshonkino

    Heute, 12 Dezember, Donnerstag

    Zeit Temperatur Niederschläge Wind Luftdruck Luftfeuchtigkeit
    00:00 -2°C° 0 mm 3 m/S 756 mmHg 91%
    01:00 -2°C° 0 mm 3 m/S 756 mmHg 91%
    02:00 -2°C° 0 mm 3 m/S 756 mmHg 92%
    03:00 -2°C° 0 mm 3 m/S 755 mmHg 91%
    04:00 -2°C° 0 mm 3 m/S 755 mmHg 90%
    05:00 -2°C° 0 mm 3 m/S 754 mmHg 89%
    06:00 -2°C° 0 mm 3 m/S 754 mmHg 88%
    07:00 -2°C° 0 mm 3 m/S 755 mmHg 87%
    08:00 -4°C° 0 mm 3 m/S 755 mmHg 86%
    09:00 -2°C° 0 mm 3 m/S 754 mmHg 84%
    10:00 -1°C° 0 mm 3 m/S 754 mmHg 83%
    11:00 -2°C° 0 mm 4 m/S 753 mmHg 81%
    12:00 -2°C° 0 mm 4 m/S 753 mmHg 79%
    13:00 -1°C° 0 mm 4 m/S 752 mmHg 77%
    14:00 -1°C° 0 mm 4 m/S 752 mmHg 75%
    15:00 -1°C° 0 mm 4 m/S 751 mmHg 81%
    16:00 -1°C° 0 mm 4 m/S 751 mmHg 87%
    17:00 0°C° 0 mm 4 m/S 750 mmHg 93%
    18:00 0°C° 0.2 mm 4 m/S 750 mmHg 92%
    19:00 0°C° 0.2 mm 5 m/S 750 mmHg 91%
    20:00 +1°C° 0.2 mm 5 m/S 749 mmHg 89%
    21:00 0°C° 0 mm 5 m/S 749 mmHg 89%
    22:00 0°C° 0 mm 4 m/S 749 mmHg 88%
    23:00 0°C° 0 mm 4 m/S 749 mmHg 88%

    Morgen, 13 Dezember, Freitag

    Zeit Temperatur Niederschläge Wind Luftdruck Luftfeuchtigkeit
    00:00 0°C° 0 mm 4 m/S 749 mmHg 88%
    01:00 0°C° 0 mm 4 m/S 749 mmHg 87%
    02:00 +1°C° 0 mm 4 m/S 750 mmHg 86%
    03:00 0°C° 0 mm 4 m/S 749 mmHg 87%
    04:00 0°C° 0 mm 4 m/S 749 mmHg 87%
    05:00 0°C° 0 mm 4 m/S 749 mmHg 87%
    06:00 0°C° 0 mm 4 m/S 749 mmHg 87%
    07:00 0°C° 0 mm 4 m/S 749 mmHg 86%
    08:00 0°C° 0 mm 4 m/S 749 mmHg 85%
    09:00 0°C° 0 mm 4 m/S 749 mmHg 85%
    10:00 0°C° 0 mm 4 m/S 749 mmHg 85%
    11:00 0°C° 0 mm 4 m/S 749 mmHg 85%
    12:00 0°C° 0 mm 4 m/S 748 mmHg 85%
    13:00 0°C° 0 mm 4 m/S 748 mmHg 86%
    14:00 0°C° 0 mm 4 m/S 748 mmHg 86%
    15:00 -1°C° 0 mm 4 m/S 748 mmHg 86%
    16:00 -1°C° 0 mm 4 m/S 748 mmHg 86%
    17:00 -1°C° 0 mm 4 m/S 747 mmHg 86%
    18:00 -1°C° 0 mm 4 m/S 747 mmHg 87%
    19:00 -1°C° 0 mm 4 m/S 748 mmHg 89%
    20:00 -1°C° 0 mm 4 m/S 748 mmHg 91%
    21:00 -1°C° 0 mm 4 m/S 748 mmHg 89%
    22:00 -1°C° 0 mm 4 m/S 748 mmHg 88%
    23:00 -1°C° 0 mm 4 m/S 747 mmHg 87%

    übermorgen, 14 Dezember, Samstag

    Zeit Temperatur Niederschläge Wind Luftdruck Luftfeuchtigkeit
    00:00 -1°C° 0 mm 4 m/S 748 mmHg 85%
    01:00 -1°C° 0 mm 4 m/S 748 mmHg 83%
    02:00 -1°C° 0 mm 4 m/S 748 mmHg 82%
    03:00 -1°C° 0 mm 4 m/S 748 mmHg 82%
    04:00 -1°C° 0 mm 4 m/S 747 mmHg 82%
    05:00 -1°C° 0 mm 4 m/S 747 mmHg 82%
    06:00 -1°C° 0 mm 5 m/S 747 mmHg 82%
    07:00 -1°C° 0 mm 5 m/S 747 mmHg 82%
    08:00 -1°C° 0 mm 5 m/S 747 mmHg 82%
    09:00 -1°C° 0 mm 5 m/S 747 mmHg 81%
    10:00 0°C° 0 mm 5 m/S 747 mmHg 81%
    11:00 0°C° 0 mm 5 m/S 747 mmHg 81%
    12:00 0°C° 0 mm 5 m/S 747 mmHg 82%
    13:00 0°C° 0 mm 4 m/S 747 mmHg 83%
    14:00 0°C° 0 mm 4 m/S 747 mmHg 84%
    15:00 -1°C° 0 mm 4 m/S 747 mmHg 88%
    16:00 -1°C° 0 mm 5 m/S 746 mmHg 91%
    17:00 -1°C° 0 mm 5 m/S 746 mmHg 94%
    18:00 -1°C° 0.1 mm 5 m/S 746 mmHg 93%
    19:00 0°C° 0.1 mm 5 m/S 746 mmHg 91%
    20:00 0°C° 0.1 mm 5 m/S 746 mmHg 90%
    21:00 0°C° 0.1 mm 5 m/S 745 mmHg 91%
    22:00 +1°C° 0.1 mm 5 m/S 745 mmHg 92%
    23:00 +1°C° 0.1 mm 5 m/S 745 mmHg 92%

    15 Dezember, Sonntag

    Zeit Temperatur Niederschläge Wind Luftdruck Luftfeuchtigkeit
    00:00 +1°C° 0.3 mm 5 m/S 744 mmHg 92%
    01:00 +3°C° 0.3 mm 4 m/S 744 mmHg 93%
    02:00 +3°C° 0.3 mm 4 m/S 744 mmHg 93%
    03:00 +3°C° 0.1 mm 4 m/S 744 mmHg 91%
    04:00 +3°C° 0.1 mm 4 m/S 744 mmHg 89%
    05:00 +3°C° 0.1 mm 4 m/S 743 mmHg 87%
    06:00 +3°C° 0 mm 4 m/S 743 mmHg 86%
    07:00 +2°C° 0 mm 5 m/S 743 mmHg 86%
    08:00 +2°C° 0 mm 5 m/S 743 mmHg 85%
    09:00 +2°C° 0.1 mm 5 m/S 744 mmHg 86%
    10:00 +1°C° 0.1 mm 5 m/S 744 mmHg 87%
    11:00 +1°C° 0.1 mm 5 m/S 744 mmHg 88%
    12:00 +3°C° 0.1 mm 4 m/S 745 mmHg 86%
    13:00 +3°C° 0.1 mm 4 m/S 745 mmHg 85%
    14:00 +3°C° 0.1 mm 4 m/S 745 mmHg 83%
    15:00 +3°C° 0 mm 4 m/S 745 mmHg 84%
    16:00 +1°C° 0 mm 4 m/S 746 mmHg 84%
    17:00 +1°C° 0 mm 4 m/S 746 mmHg 84%
    18:00 0°C° 0 mm 4 m/S 746 mmHg 86%
    19:00 0°C° 0 mm 4 m/S 746 mmHg 88%
    20:00 0°C° 0 mm 4 m/S 745 mmHg 90%
    21:00 0°C° 0.1 mm 4 m/S 744 mmHg 91%
    22:00 0°C° 0.1 mm 5 m/S 744 mmHg 92%
    23:00 +1°C° 0.1 mm 6 m/S 743 mmHg 92%

    16 Dezember, Montag

    Zeit Temperatur Niederschläge Wind Luftdruck Luftfeuchtigkeit
    00:00 +2°C° 0.5 mm 6 m/S 742 mmHg 89%
    01:00 +3°C° 0.5 mm 6 m/S 741 mmHg 86%
    02:00 +4°C° 0.5 mm 6 m/S 740 mmHg 83%
    03:00 +3°C° 0.1 mm 7 m/S 739 mmHg 81%
    04:00 +1°C° 0.1 mm 8 m/S 739 mmHg 80%
    05:00 0°C° 0.1 mm 9 m/S 739 mmHg 79%
    06:00 0°C° 0.3 mm 9 m/S 740 mmHg 80%
    07:00 0°C° 0.3 mm 9 m/S 740 mmHg 82%
    08:00 0°C° 0.3 mm 9 m/S 741 mmHg 84%
    09:00 0°C° 0.3 mm 9 m/S 743 mmHg 81%
    10:00 +1°C° 0.3 mm 8 m/S 745 mmHg 78%
    11:00 +1°C° 0.3 mm 8 m/S 747 mmHg 75%
    12:00 +2°C° 0 mm 7 m/S 748 mmHg 74%
    13:00 +2°C° 0 mm 6 m/S 749 mmHg 74%
    14:00 +2°C° 0 mm 5 m/S 750 mmHg 73%
    15:00 +2°C° 0 mm 5 m/S 750 mmHg 76%
    16:00 +1°C° 0 mm 4 m/S 751 mmHg 79%
    17:00 +1°C° 0 mm 4 m/S 751 mmHg 81%
    18:00 +1°C° 0 mm 4 m/S 751 mmHg 81%
    19:00 +1°C° 0 mm 5 m/S 751 mmHg 81%
    20:00 0°C° 0 mm 5 m/S 751 mmHg 80%
    21:00 0°C° 0 mm 5 m/S 751 mmHg 81%
    22:00 0°C° 0 mm 5 m/S 751 mmHg 82%
    23:00 0°C° 0 mm 5 m/S 751 mmHg 82%

    17 Dezember, Dienstag

    Zeit Temperatur Niederschläge Wind Luftdruck Luftfeuchtigkeit
    00:00 0°C° 0 mm 5 m/S 751 mmHg 82%
    01:00 0°C° 0 mm 5 m/S 750 mmHg 81%
    02:00 0°C° 0 mm 5 m/S 750 mmHg 81%
    03:00 0°C° 0 mm 5 m/S 750 mmHg 82%
    04:00 0°C° 0 mm 4 m/S 750 mmHg 84%
    05:00 0°C° 0 mm 4 m/S 750 mmHg 86%
    06:00 -1°C° 0 mm 4 m/S 750 mmHg 87%
    07:00 -1°C° 0 mm 4 m/S 751 mmHg 89%
    08:00 0°C° 0 mm 3 m/S 751 mmHg 90%
    09:00 -1°C° 0 mm 4 m/S 751 mmHg 90%
    10:00 -1°C° 0 mm 4 m/S 752 mmHg 89%
    11:00 0°C° 0 mm 4 m/S 752 mmHg 89%
    12:00 0°C° 0 mm 4 m/S 752 mmHg 88%
    13:00 0°C° 0 mm 4 m/S 752 mmHg 88%
    14:00 0°C° 0 mm 4 m/S 752 mmHg 87%
    15:00 0°C° 0 mm 4 m/S 753 mmHg 88%
    16:00 +1°C° 0 mm 3 m/S 753 mmHg 90%
    17:00 +1°C° 0 mm 3 m/S 753 mmHg 91%
    18:00 +1°C° 0 mm 3 m/S 753 mmHg 92%
    19:00 +1°C° 0 mm 3 m/S 753 mmHg 92%
    20:00 +1°C° 0 mm 3 m/S 753 mmHg 93%
    21:00 +1°C° 0 mm 3 m/S 753 mmHg 93%
    22:00 +1°C° 0 mm 3 m/S 753 mmHg 92%
    23:00 +2°C° 0 mm 2 m/S 753 mmHg 92%
    Mehr zeigen